Location: Lowman
(44.0835°N, 115.6207°W)
Time: 18:13:05
(UTC+00:00)

Tiangong - Pass Details

Date: 06 December 2022
Orbit: 383 x 386 km, 41.5° (Epoch: 30 January)

Event Time Altitude Azimuth Distance (km) Brightness Sun altitude
Rises 02:18:32 0° 269° (W) 2,257 3.2 -23.3°
Reaches altitude 10° 02:20:38 10° 263° (W) 1,405 1.8 -23.7°
Enters shadow 02:22:38 31° 240° (WSW) 697 -0.3 -24.1°
